Location: Hamburg
(53.5554°N, 9.9941°E)
Time: 21:36:45
(UTC+01:00)

ISS - Visible Passes

Search period start: 24 November 2017 00:00
Search period end: 04 December 2017 00:00
Orbit: 401 x 407 km, 51.6° (Epoch: 25 November)

Date Brightness Start Highest point End Pass type
(mag) Time Alt. Az. Time Alt. Az. Time Alt. Az.
29 Nov -1.1 18:59:34 10° SSW 19:00:16 14° SSW 19:00:16 14° SSW visible
30 Nov -2.0 18:07:45 10° SSW 18:10:04 19° SSE 18:10:04 19° SSE visible
01 Dec -1.4 17:16:23 10° S 17:17:58 13° SE 17:19:34 10° ESE visible
01 Dec -1.9 18:50:43 10° SW 18:52:28 26° SSW 18:52:28 26° SSW visible
02 Dec -2.6 17:58:35 10° SW 18:01:30 30° SSE 18:02:09 27° SE visible
02 Dec -0.5 19:34:25 10° WSW 19:34:47 13° WSW 19:34:47 13° WSW visible
03 Dec -2.0 17:06:38 10° SSW 17:09:13 21° SSE 17:11:47 10° E visible
03 Dec -2.6 18:42:03 10° WSW 18:44:26 39° SW 18:44:26 39° SW visible
